Погода в Малине

Украина / Житомирская область     50°46′04″N   29°14′26″E
темп.,
°C
ветер,
м/с
пор.,
м/с
влажн.,
%
обл.,
%
осадки,
мм/ч
давл.,
гПа
погр.,
м
21 апреля, ср
ср2100:00+4ссз349228 0.0 101068
03:00+5зсз2491100 0.0 1010134
06:00+5зсз3593100 0.4 1010120
09:00+8сз3578100 0.9 1011351
12:00+10зсз566464 0.5 10121153
15:00+11зюз566271 0.8 10121174
18:00+12зюз3563100 0.1 1012823
21:00+8юз358177 0.6 101385
22 апреля, чт
чт2200:00+7юз498569 0.0 1013165
03:00+6юз4128725 0.1 1014209
06:00+5ююз4891100 0.0 1014143
09:00+10юз6117576 0.0 1015562
12:00+15ююз79567 0.4 10141564
15:00+15юз71058100 1.4 10131533
18:00+14юз5106837 0.9 10131282
21:00+8юз3790100 4.1 1015215
23 апреля, пт
пт2300:00+7зюз239377 0.0 101439
03:00+5ссз7992100 1.2 1015544
06:00+5зсз1290100 0.9 1016175
09:00+7зсз4573100 0.9 1016630
12:00+7з4560100 0.0 10171192
15:00+9з4653100 0.1 10161608
18:00+8зсз686022 0.4 10151375
21:00+4зсз347017 0.4 101758
24 апреля, сб
сб2400:00+2з378316 0.0 1016155
03:00+1зюз358496 0.0 101686
06:00+2зюз61097100 0.3 1015539
09:00+2з71090100 0.5 1016797
12:00+2зсз71291100 1.5 1017949
15:00+6зсз795699 1.7 10171813
18:00+7зсз6105941 0.1 10171644
21:00+3з5127497 0.1 1018396
25 апреля, вс
вс2500:00+3з5117896 0.0 1018406
03:00+1з410886 0.0 1018264
06:00−1з4109411 0.0 1019217
09:00+3зсз6972100 0.0 1019948
12:00+6зсз81046100 0.1 10182355
15:00+6зсз81050100 0.3 10182215
18:00+6зсз7105893 0.1 10181577
21:00+2з410715 0.1 1019256